Regional Weather Roundup
Issued by NWS

Home | Current Version | Previous Version | Text Only | Print | Product List | Glossary On
Versions: 1 2 3 4 5 6 7 8 9 10 11 12 13 14 15 16 17 18 19 20 21 22 23 24 25 26 27 28 29 30 31 32 33 34 35 36 37 38 39 40 41 42 43 44 45 46 47 48 49 50
000
ASUS42 KKEY 071310
RWRKEY

FLORIDA REGIONAL WEATHER ROUNDUP FOR THE FLORIDA KEYS
NATIONAL WEATHER SERVICE KEY WEST FLORIDA
800 AM EST WED DEC 07 2016

...SOUTH FLORIDA AND THE KEYS...

CITY           SKY/WX    TMP DP  RH WIND       PRES   REMARKS
FORT MYERS     CLOUDY    71  69  93 E5        30.05R
SW REGIONAL AP CLOUDY    70  68  93 NE6       30.06R FOG
NAPLES         PTSUNNY  N/A N/A N/A NE5       30.05R HAZE
MIAMI          CLOUDY    76  73  91 N5        30.04R
WEST KENDALL   PTSUNNY   73  73 100 CALM      30.04R FOG
HOMESTEAD      SUNNY     73  73 100 CALM      30.03R
MARATHON       CLOUDY    79  76  90 CALM      30.03R
BOCA CHICA NAS CLOUDY    75  74  96 CALM      30.04R
KEY WEST INTL  MOSUNNY   77  76  96 CALM      30.05R

...INTERNATIONAL WEATHER...

CITY           SKY/WX    TMP DP  RH WIND       PRES   REMARKS
NASSAU BAHAMAS NOT AVBL
CANCUN MEXICO  MOCLDY    79  77  94 E2        29.99R
COZUMEL MEXICO PTCLDY    73  73 100 CALM      29.97

ADJACENT COASTAL WATERS...

STATION/POSITION TIME  SKY/WX   TEMP    WIND        PRES    WAVE
                                AIR SEA DIR/SP/G            HT/PER
                 (UTC)          (F)     (DEG/KT/KT) (MB)    (FT/S)
PULASKI SHOAL LI 1200            76     110/  3/  3 1016.8R
SAND KEY         1250            77      90/  3/  3 1018.0R
LONG KEY         1200            78 79  340/  3/  4 1017.0R
MOLASSES REEF    NOT AVBL
FOWEY ROCKS      1200            76 78  300/  2/  3 1017.0R

$$



USA.gov is the U.S. government's official web portal to all federal, state and local government web resources and services.